Montpellier, France

11:11 AM CEST on July 21, 2017 (GMT +0200)
Montpellier / Mediterranee

Weather History for LFMT - January, 2014

Change the Weather History Date:

Thursday, January 2, 2014

  Actual Average Record
Temperature  
Mean Temperature 52 °F -  
Max Temperature 61 °F 50 °F 62 °F (2001)
Min Temperature 44 °F 36 °F 28 °F (2015)
Degree Days  
Heating Degree Days 12    
Growing Degree Days 2 (Base 50)    
Moisture  
Dew Point 48 °F    
Average Humidity 87    
Maximum Humidity 100    
Minimum Humidity 55    
Precipitation  
Precipitation 0.01 in - - ()
Sea Level Pressure  
Sea Level Pressure 29.87 in    
Wind  
Wind Speed 6 mph ()    
Max Wind Speed 12 mph    
Max Gust Speed -    
Visibility 8.4 miles    
Events      
Averages and records for this station are not official NWS values.
T = Trace of Precipitation, MM = Missing Value Source: Averaged Metar Reports

Daily Weather History Graph

Daily Weather History Graph

Search for Another Location

Airport or City:

Trip Planner

Search our weather history database for the weather conditions in past years. The results will help you decide how hot, cold, wet, or windy it might be!

Date:

Astronomy

Jan. 02, 2014 Rise Set
Actual Time 8:17 AM CET 5:18 PM CET
Civil Twilight 7:44 AM CET 5:51 PM CET
Nautical Twilight 7:08 AM CET 6:27 PM CET
Astronomical Twilight 6:34 AM CET 7:02 PM CET
Moon 8:43 AM CET (1/2) 7:00 PM CET (1/2)
Length of Visible Light 10h 06m
Length of Day
9h 01m
New Moon, 2% of the Moon is Illuminated
Jan 2
New Moon
Jan 8
First Quarter
Jan 16
Full
Jan 24
Last Quarter
Jan 30
New

Hourly Weather History & Observations

Time (CET) Temp. Windchill Dew Point Humidity Pressure Visibility Wind Dir Wind Speed Gust Speed Precip Events Conditions
12:00 AM 50 °F - 47 °F 88% 29.88 in 19 mi NNE 9.2 mph - -   Overcast
12:00 AM 50.0 °F - 48.2 °F 94% 29.86 in 6.2 mi NNE 9.2 mph - N/A   Mostly Cloudy
12:30 AM 50.0 °F - 48.2 °F 94% 29.83 in 6.2 mi NE 11.5 mph - N/A   Mostly Cloudy
1:00 AM 52 °F - 49 °F 85% 29.86 in 12 mi ENE 10.4 mph - -   Clear
1:00 AM 51.8 °F - 48.2 °F 88% 29.83 in 6.2 mi ENE 10.4 mph - N/A   Mostly Cloudy
1:30 AM 51.8 °F - 50.0 °F 94% 29.83 in 6.2 mi ENE 10.4 mph - N/A   Overcast
2:00 AM 52 °F - 49 °F 88% 29.82 in 11 mi ENE 11.5 mph - -   Clear
2:00 AM 51.8 °F - 50.0 °F 94% 29.80 in 6.2 mi ENE 11.5 mph - N/A   Overcast
2:30 AM 53.6 °F - 50.0 °F 88% 29.80 in 6.2 mi ENE 9.2 mph - N/A   Mostly Cloudy
3:00 AM 52 °F - 49 °F 86% 29.81 in 6 mi ESE 6.9 mph - -   Clear
3:00 AM 51.8 °F - 50.0 °F 94% 29.80 in 6.2 mi ESE 6.9 mph - N/A   Unknown
3:30 AM 50.0 °F - 48.2 °F 94% 29.80 in 6.2 mi ESE 6.9 mph - N/A   Unknown
4:00 AM 49 °F - 46 °F 84% 29.80 in 19 mi ESE 6.9 mph - -   Clear
4:00 AM 48.2 °F - 46.4 °F 93% 29.77 in 6.2 mi ESE 6.9 mph - N/A   Unknown
4:30 AM 50.0 °F - 48.2 °F 94% 29.77 in - East 6.9 mph - N/A   Clear
5:00 AM 50 °F - 47 °F 88% 29.78 in 19 mi NW 2.3 mph - -   Overcast
5:00 AM 50.0 °F - 48.2 °F 94% 29.77 in - Variable 2.3 mph - N/A   Clear
5:30 AM 50.0 °F - 48.2 °F 94% 29.77 in - NW 4.6 mph - N/A   Clear
6:00 AM 49 °F - 48 °F 94% 29.80 in 12 mi NNW 4.6 mph - -   Mostly Cloudy
6:00 AM 50.0 °F - 48.2 °F 94% 29.77 in - North 3.5 mph - N/A   Clear
6:30 AM 48.2 °F - 46.4 °F 93% 29.80 in - North 5.8 mph - N/A   Clear
7:00 AM 48 °F - 46 °F 92% 29.81 in 6 mi NNE 4.6 mph - -   Partly Cloudy
7:00 AM 48.2 °F - 46.4 °F 93% 29.80 in - NNE 4.6 mph - N/A   Clear
7:30 AM 48.2 °F - 48.2 °F 100% 29.80 in 4.3 mi NNW 3.5 mph - N/A   Unknown
8:00 AM 49 °F - 49 °F 98% 29.83 in 6 mi NW 4.6 mph - -   Partly Cloudy
8:00 AM 50.0 °F - 48.2 °F 94% 29.83 in 5.6 mi NW 4.6 mph - N/A   Unknown
8:43 AM 48.2 °F - 48.2 °F 100% 29.83 in 5.6 mi North 5.8 mph - N/A   Unknown
9:00 AM 49 °F - 48 °F 97% 29.85 in 6 mi NNE 5.8 mph - -   Mostly Cloudy
9:00 AM 50.0 °F - 48.2 °F 94% 29.83 in 5.6 mi NNE 5.8 mph - N/A   Unknown
9:30 AM 50.0 °F - 50.0 °F 100% 29.86 in 5.6 mi North 6.9 mph - N/A   Unknown
10:00 AM 53 °F - 51 °F 90% 29.89 in 9 mi North 9.2 mph - -   Mostly Cloudy
10:00 AM 51.8 °F - 51.8 °F 100% 29.89 in - North 9.2 mph - N/A   Clear
10:30 AM 53.6 °F - 51.8 °F 94% 29.89 in - North 9.2 mph - N/A   Clear
11:00 AM 54 °F - 50 °F 83% 29.92 in 12 mi North 8.1 mph - -   Clear
11:00 AM 53.6 °F - 50.0 °F 88% 29.92 in 6.2 mi North 6.9 mph - N/A   Mostly Cloudy
11:30 AM 55.4 °F - 50.0 °F 82% 29.92 in 6.2 mi North 6.9 mph - N/A   Mostly Cloudy
12:00 PM 56 °F - 50 °F 75% 29.91 in 12 mi North 5.8 mph - -   Clear
12:00 PM 55.4 °F - 50.0 °F 82% 29.89 in 6.2 mi NNE 5.8 mph - N/A   Mostly Cloudy
12:30 PM 55.4 °F - 50.0 °F 82% 29.89 in - NNW 3.5 mph - N/A   Clear
1:00 PM 57 °F - 50 °F 70% 29.90 in 16 mi NW 2.3 mph - -   Scattered Clouds
1:00 PM 57.2 °F - 50.0 °F 77% 29.89 in - Variable 2.3 mph - N/A   Clear
1:30 PM 57.2 °F - 50.0 °F 77% 29.89 in - Variable 3.5 mph - N/A   Clear
2:00 PM 60 °F - 48 °F 55% 29.89 in 16 mi East 4.6 mph - -   Scattered Clouds
2:00 PM 59.0 °F - 48.2 °F 67% 29.86 in - East 4.6 mph - N/A   Clear
2:30 PM 60.8 °F - 50.0 °F 68% 29.86 in - Variable 3.5 mph - N/A   Clear
3:00 PM 60 °F - 50 °F 60% 29.89 in 19 mi SE 3.5 mph - -   Scattered Clouds
3:00 PM 60.8 °F - 50.0 °F 68% 29.86 in - SE 3.5 mph - N/A   Clear
3:30 PM 60.8 °F - 50.0 °F 68% 29.89 in - SE 3.5 mph - N/A   Clear
4:00 PM 59 °F - 50 °F 64% 29.90 in 12 mi SE 2.3 mph - -   Clear
4:30 PM 57.2 °F - 50.0 °F 77% 29.89 in - SW 2.3 mph - N/A   Clear
5:00 PM 55 °F - 49 °F 74% 29.91 in 12 mi SSW 2.3 mph - -   Scattered Clouds
5:00 PM 55.4 °F - 50.0 °F 82% 29.89 in - SW 2.3 mph - N/A   Clear
5:30 PM 51.8 °F - 46.4 °F 82% 29.89 in - Variable 1.2 mph - N/A   Clear
6:00 PM 51 °F - 48 °F 86% 29.91 in 9 mi NNW 1.2 mph - -   Scattered Clouds
6:00 PM 51.8 °F - 48.2 °F 88% 29.89 in - NNW 1.2 mph - N/A   Clear
6:30 PM 50.0 °F - 46.4 °F 87% 29.89 in - WNW 3.5 mph - N/A   Clear
7:00 PM 49 °F - 44 °F 76% 29.92 in 8 mi NW 4.6 mph - -   Clear
7:00 PM 50.0 °F - 44.6 °F 82% 29.92 in - NW 4.6 mph - N/A   Clear
7:35 PM 48.2 °F - 46.4 °F 93% 29.92 in 5.6 mi Variable 2.3 mph - N/A   Unknown
8:00 PM 48 °F - 45 °F 84% 29.95 in 6 mi NNW 2.3 mph - -   Clear
8:00 PM 48.2 °F - 44.6 °F 87% 29.92 in - Variable 2.3 mph - N/A   Clear
8:30 PM 46.4 °F - 44.6 °F 93% 29.92 in - Variable 2.3 mph - N/A   Clear
9:00 PM 46 °F - 44 °F 89% 29.94 in 5 mi Calm Calm - -   Clear
9:00 PM 46.4 °F - 44.6 °F 93% 29.92 in 5.0 mi Calm Calm - N/A   Unknown
9:30 PM 46.4 °F - 42.8 °F 87% 29.92 in 4.3 mi NE 2.3 mph - N/A   Unknown
10:00 PM 45 °F - 43 °F 92% 29.95 in 5 mi NNE 5.8 mph - -   Clear
10:00 PM 44.6 °F 41.4 °F 42.8 °F 93% 29.92 in 5.0 mi NNE 5.8 mph - N/A   Unknown
10:30 PM 46.4 °F 43.5 °F 44.6 °F 93% 29.95 in 5.6 mi NNE 5.8 mph - N/A   Mostly Cloudy
11:00 PM 47 °F - 45 °F 92% 29.96 in 6 mi North 5.8 mph - -   Overcast
11:00 PM 46.4 °F 43.5 °F 44.6 °F 93% 29.95 in 6.2 mi NNE 5.8 mph - N/A   Mostly Cloudy
11:30 PM 46.4 °F 43.5 °F 46.4 °F 100% 29.95 in 6.2 mi NE 5.8 mph - N/A   Mostly Cloudy